Regional Weather Roundup
Issued by NWS Little Rock, AR

Home | Current Version | Previous Version | Text Only | Print | Product List | Glossary Off
Versions: 1 2 3 4 5 6 7 8 9 10 11 12 13 14 15 16 17 18 19 20 21 22 23 24 25 26 27 28 29 30 31 32 33 34 35 36 37 38 39 40 41 42 43 44 45 46 47 48 49 50

000
ASUS44 KLZK 050505
RWRLZK

WEATHER ROUNDUP FOR ARKANSAS
NATIONAL WEATHER SERVICE LITTLE ROCK AR
1200 AM CDT WED AUG 05 2015

NOTE: "FAIR" INDICATES FEW OR NO CLOUDS BELOW 12,000 FEET WITH NO
SIGNIFICANT WEATHER AND/OR OBSTRUCTIONS TO VISIBILITY.

ARZ001-003-010-029-050600-
NORTHWEST ARKANSAS

CITY           SKY/WX    TMP DP  RH WIND       PRES   REMARKS
FAYETTEVILLE   CLOUDY    76  73  91 E3        30.01S
FORT SMITH     CLOUDY    79  71  76 E3        29.96S
HARRISON       LGT RAIN  72  66  81 SW3       30.05R
BENTONVILLE    CLOUDY    73  66  78 E10       30.02S
ROGERS         CLOUDY    73  70  90 E10       30.02F
SILOAM SPGS    CLOUDY    75  64  69 E6        29.99F
HIGHFILL       CLOUDY    74  71  91 E6        30.01S
$$

ARZ004-005-016-050600-
NORTH CENTRAL ARKANSAS

CITY           SKY/WX    TMP DP  RH WIND       PRES   REMARKS
BATESVILLE     CLOUDY    79  73  83 N3        29.99S
FLIPPIN        CLOUDY    72  66  83 CALM      30.00S
MTN HOME       CLOUDY    71  69  93 E7        30.01F
$$

ARZ040-041-050600-
WEST CENTRAL ARKANSAS

CITY           SKY/WX    TMP DP  RH WIND       PRES   REMARKS
MENA           PTCLDY    77  73  88 CALM      30.01R
MOUNT IDA      MOCLDY    77  72  84 CALM      29.97S
$$

ARZ009-017-025-026-028-050600-
NORTHEAST ARKANSAS

CITY           SKY/WX    TMP DP  RH WIND       PRES   REMARKS
JONESBORO      CLOUDY    79  75  87 CALM      29.98R
NEWPORT        CLOUDY    82  77  85 S3        29.99R HX  90
WALNUT RIDGE   CLOUDY    82  73  74 S6        29.98S HX  88
BLYTHEVILLE    CLOUDY    81  77  88 CALM      29.99R HX  88
$$

ARZ022-023-033-042-044-050600-
CENTRAL ARKANSAS

CITY           SKY/WX    TMP DP  RH WIND       PRES   REMARKS
LITTLE ROCK    CLOUDY    83  70  64 CALM      29.97S HX  87
N LITTLE ROCK  MOCLDY    83  71  66 NE3       29.97S HX  87
JACKSONVILLE   CLOUDY    81  70  69 E3        29.97S HX  85
SEARCY         CLOUDY    80  72  76 CALM      29.99S
HOT SPRINGS    MOCLDY    82  68  62 CALM      29.98R HX  85
RUSSELLVILLE   CLOUDY    78  73  84 CALM      29.98R
$$

ARZ036-050600-
EAST ARKANSAS

CITY           SKY/WX    TMP DP  RH WIND       PRES   REMARKS
WEST MEMPHIS     N/A     82  75  79 CALM      29.97S HX  89
$$

ARZ050-053-066-070-073-050600-
SOUTHWEST ARKANSAS

CITY           SKY/WX    TMP DP  RH WIND       PRES   REMARKS
ARKADELPHIA    FAIR      80  78  94 CALM      29.97R HX  86
CAMDEN         CLOUDY    81  73  78 CALM      29.96S HX  85
TEXARKANA      MOCLDY    85  68  56 SE7       29.96R HX  88
EL DORADO      MOCLDY    82  72  71 CALM      29.97S HX  87
DE QUEEN       CLOUDY    81  73  76 CALM      29.94R HX  86
$$

ARZ056-057-069-050600-
SOUTHEAST ARKANSAS

CITY           SKY/WX    TMP DP  RH WIND       PRES   REMARKS
PINE BLUFF     CLOUDY    81  76  84 CALM      29.97R HX  87
STUTTGART      CLOUDY    84  72  65 SE6       29.97F HX  89
MONTICELLO     CLOUDY    84  74  71 SE3       29.97S HX  91

$$





USA.gov is the U.S. government's official web portal to all federal, state and local government web resources and services.